Location: ???????
(54.6339°N, 39.4245°E)
Time: 13:54:42
(UTC+00:00)

Cosmos 1500 Rocket - Pass Details

Date: 19 May 2025
Orbit: 598 x 623 km, 82.5° (Epoch: 21 June)

Event Time Altitude Azimuth Distance (km) Brightness Sun altitude
Rises 21:08:00 0° 344° (NNW) 2,880 8.6 -15.4°
Reaches altitude 10° 21:10:17 10° 339° (NNW) 1,975 7.3 -15.4°
Maximum altitude 21:14:27 46° 266° (W) 828 4.1 -15.4°
Enters shadow 21:16:43 24° 206° (SSW) 1,275 4.6 -15.4°
